Location: Carrières
(48.9495°N, 2.0407°E)
Time: 15:29:55
(UTC+00:00)

Vanguard 2 Rocket - Pass Details

Date: 13 April 2024
Orbit: 556 x 3304 km, 32.9° (Epoch: 18 May)

Event Time Altitude Azimuth Distance (km) Brightness Sun altitude
Rises 01:35:26 0° 252° (WSW) 7,289 - -27.6°
Reaches altitude 10° 01:40:48 10° 247° (WSW) 6,222 - -27.2°
Exits shadow 01:52:18 35° 221° (SW) 4,088 9.6 -26.2°
Maximum altitude 01:58:05 43° 185° (S) 3,438 9.3 -25.6°
Drops below altitude 10° 02:10:04 10° 120° (ESE) 4,393 10.5 -24.5°
Sets 02:13:07 0° 113° (ESE) 5,059 10.9 -24.2°
